RH
95 91 83 65 50 57 67 71 69 61 56 60 64 68 75 81 85 90 92 95 100 98 99 99 98 99 98 97 94 90 89 84 79 80 82 86 86 79 76 74 70 67 65 68 73 76 77 78 79 77 77 79 84 84 79 73 70 71 73 75 77 73 69 71 74 76 76 76 81 85 87 87 87 86 88 91 92 90 90 92 94 95 92 88 90
98 96 91 80 70 76 81 82 85 77 64 65 76 80 85 91 94 96 98 99 100 99 98 96 95 96 93 90 87 82 81 79 77 78 79 83 82 77 75 73 70 68 69 73 78 80 79 79 78 77 78 82 87 84 76 72 70 74 79 78 77 75 74 76 76 80 84 83 86 92 96 95 94 92 90 93 93 88 89 95 97 96 95 95 94
99 96 95 94 89 88 86 87 94 91 77 76 84 87 93 99 99 99 100 99 100 99 97 96 96 94 86 83 81 78 77 76 76 77 76 77 75 74 74 72 68 70 73 77 79 79 78 80 78 77 79 83 84 80 73 71 74 81 85 82 77 74 76 80 80 82 86 87 89 94 99 99 99 99 95 94 92 89 91 94 93 93 95 98 96
99 97 95 97 94 92 90 91 98 96 88 89 85 83 95 101 99 100 100 98 99 100 98 96 96 91 84 81 78 76 77 75 76 78 76 74 72 72 72 68 68 73 76 77 78 77 78 79 79 78 79 81 83 83 77 73 76 82 86 85 80 74 72 78 81 81 83 86 89 92 97 96 93 98 99 96 93 93 94 93 91 93 95 96 94
95 99 96 97 96 97 95 92 97 94 90 92 85 84 98 100 99 101 99 98 100 100 97 95 94 89 83 81 80 81 79 74 72 74 75 74 73 72 70 66 68 73 75 76 75 75 76 78 80 80 78 78 81 84 81 78 80 82 84 86 85 78 74 78 80 81 84 88 88 89 92 90 91 99 100 97 96 95 93 93 93 94 96 94 89
92 99 99 99 99 100 99 94 95 93 87 89 86 89 99 100 99 99 97 99 100 98 94 93 92 84 76 75 78 78 74 69 66 66 69 71 72 71 67 66 70 72 72 74 74 72 74 75 79 80 78 78 80 84 83 80 80 80 80 83 84 83 82 83 82 82 85 86 88 89 85 84 89 96 97 98 99 96 93 94 95 95 94 91 86
93 98 99 100 100 100 100 98 98 95 87 86 86 89 97 100 97 93 95 98 99 96 93 91 87 78 73 70 69 68 65 64 65 65 66 68 70 70 66 66 72 74 72 72 72 71 73 75 78 80 80 80 80 81 80 78 79 77 78 81 83 84 85 86 84 85 86 84 87 90 85 81 81 85 92 96 98 97 97 97 97 96 95 93 90
95 100 99 100 100 99 101 99 100 98 88 85 86 86 92 96 92 90 92 95 96 92 89 87 81 76 75 72 70 69 66 64 66 68 68 68 71 70 68 70 74 75 73 72 72 72 74 76 77 77 78 77 75 73 75 78 79 76 75 78 81 82 84 89 88 88 90 88 88 90 88 84 81 80 83 89 94 97 98 98 98 99 99 97 93
95 100 100 100 100 99 101 99 101 99 87 85 87 85 88 90 90 92 90 90 90 87 86 83 78 78 76 73 73 70 68 68 66 67 70 70 72 71 72 76 77 75 74 75 74 72 74 74 72 72 71 70 69 69 70 74 77 74 69 71 78 82 84 89 91 93 97 94 91 92 89 86 85 82 80 85 91 93 95 97 98 100 99 95 92
98 101 99 100 100 100 101 99 101 98 88 87 88 84 86 86 90 94 87 83 81 81 82 78 75 79 73 68 69 65 65 70 68 69 72 71 72 72 73 73 67 63 67 72 71 67 66 65 63 62 63 65 67 69 71 73 73 71 65 65 73 81 83 84 86 91 96 96 95 95 92 87 86 84 86 93 94 92 94 95 95 99 98 94 94
100 100 99 101 100 100 100 99 100 99 96 94 87 83 85 86 93 95 85 77 74 76 79 75 73 75 68 62 63 60 62 67 66 64 66 67 69 67 61 54 49 51 57 61 61 56 55 56 56 55 56 62 66 68 71 69 66 68 68 66 68 75 81 81 79 81 84 90 96 95 91 88 85 82 84 90 93 96 97 94 95 99 97 95 93
100 100 100 98 98 100 98 98 97 97 100 98 91 89 86 89 97 95 85 77 73 75 78 77 73 69 63 60 62 62 63 63 56 49 51 54 57 55 48 42 43 50 53 53 51 50 52 54 54 55 56 59 62 61 59 58 63 71 74 73 71 75 81 81 79 79 80 86 93 91 85 83 84 84 82 80 85 94 97 96 98 100 99 93 84
97 93 84 76 84 95 97 97 90 90 100 99 97 98 92 93 100 96 88 81 77 80 81 77 71 66 62 61 64 67 66 62 50 40 40 44 49 51 49 48 49 52 52 51 50 51 55 57 56 57 55 52 51 48 49 58 67 73 75 76 76 77 79 79 78 78 78 80 84 84 80 79 82 84 81 77 83 93 99 100 99 100 98 92 85
91 85 78 73 82 90 92 92 78 75 94 101 98 101 98 96 99 99 96 92 87 84 82 77 70 67 66 64 68 73 72 67 58 45 37 42 54 56 55 57 58 56 52 50 51 54 58 62 60 53 41 37 40 44 54 65 68 69 73 75 75 76 75 76 75 74 74 74 75 75 77 80 81 80 78 77 81 88 94 93 91 96 98 92 89
93 92 92 92 94 88 84 89 82 73 87 101 99 99 100 98 99 99 95 95 96 86 77 76 73 71 70 70 74 77 74 69 65 56 42 43 58 63 61 61 57 55 52 48 52 57 60 64 60 43 26 27 40 49 61 69 68 71 76 75 74 75 74 73 72 71 70 70 70 71 74 78 80 79 80 80 77 77 79 71 66 75 87 91 87
97 97 96 93 96 93 84 86 93 88 86 96 100 99 101 96 93 93 84 81 86 81 74 73 73 73 72 73 76 76 73 67 64 62 52 48 58 64 62 55 48 47 46 49 57 62 65 65 54 34 20 25 38 49 59 65 69 75 76 73 72 71 69 69 69 68 67 68 69 70 71 75 79 80 80 79 77 77 72 60 53 56 68 81 85
97 98 94 87 86 89 87 85 94 99 94 94 98 100 100 93 90 91 80 66 65 73 76 72 73 76 72 73 76 75 75 68 58 56 55 57 65 70 64 51 42 40 44 55 63 65 68 62 46 30 21 22 29 40 51 56 67 77 75 73 71 66 64 64 62 57 54 61 69 69 69 73 76 78 78 76 76 79 67 51 49 51 54 66 78
97 100 93 87 83 84 92 94 93 98 98 92 93 98 98 94 91 88 76 60 60 73 80 73 75 79 73 74 78 78 78 71 56 50 54 62 71 75 70 57 45 39 47 62 65 65 64 53 38 28 20 19 20 29 42 49 62 73 74 72 68 63 62 58 54 50 50 61 70 67 67 72 74 74 75 72 72 76 62 45 46 46 41 47 58
99 100 89 88 88 85 91 97 95 96 97 92 92 96 97 95 94 91 82 70 69 76 76 73 79 82 77 78 82 82 82 72 57 51 55 63 68 70 71 65 52 40 45 61 66 63 54 40 32 25 18 17 16 19 31 41 55 68 72 72 68 64 61 51 50 57 61 66 69 64 63 68 71 70 70 67 69 71 58 47 51 50 43 40 40
95 96 91 90 92 90 91 95 95 94 95 96 94 89 90 95 97 97 91 83 82 84 77 74 82 86 83 84 85 86 85 74 60 56 61 64 64 68 71 64 52 38 35 47 55 52 41 29 27 22 17 17 15 15 22 32 47 58 58 56 52 49 47 44 50 61 62 63 65 63 60 62 67 67 64 63 66 67 57 51 56 58 55 49 41
91 94 98 97 96 96 97 95 94 93 94 98 96 85 84 92 96 96 91 84 85 88 82 76 80 85 85 85 85 87 86 76 64 63 68 69 66 71 72 60 47 35 26 28 33 33 29 24 22 19 17 16 15 15 18 24 32 35 31 28 26 27 33 42 53 56 54 57 62 62 59 59 63 63 61 60 61 62 60 57 58 61 63 60 50
95 97 100 100 100 100 100 98 98 98 94 94 95 90 88 90 89 89 90 85 81 81 81 77 76 80 83 83 82 84 84 76 67 69 75 72 68 71 69 53 40 32 22 17 18 19 20 20 18 18 17 15 14 14 14 16 17 17 17 16 18 24 33 46 55 55 53 54 58 62 61 59 60 59 57 58 58 59 59 57 55 56 63 68 64
99 99 95 91 94 99 99 99 100 100 99 96 92 90 94 95 88 86 90 89 81 76 77 77 76 79 81 81 80 83 83 76 69 73 78 73 68 70 65 46 32 26 18 13 15 15 15 16 16 17 16 14 13 12 13 15 16 17 17 18 21 28 35 46 56 58 57 56 56 58 60 59 60 59 57 57 57 55 53 50 48 49 54 61 67
99 100 94 83 87 99 100 99 100 99 101 98 89 86 94 100 96 92 91 88 82 75 72 76 79 82 83 81 80 83 83 76 72 76 78 71 67 70 62 41 28 22 14 11 14 13 14 16 16 16 15 13 12 14 17 21 22 23 23 23 25 27 31 40 48 52 54 56 57 57 57 56 56 56 56 54 52 50 47 46 47 49 48 49 56
99 100 99 93 95 101 99 99 101 100 100 97 90 91 97 100 99 97 91 87 84 76 70 74 80 85 85 83 83 84 81 77 76 79 76 68 67 71 60 40 29 22 15 12 12 12 13 15 16 15 13 12 14 18 23 26 26 27 27 29 30 31 33 34 36 39 40 42 47 52 55 56 55 53 52 49 48 47 46 46 46 46 46 45 45
100 99 100 99 100 99 97 97 98 99 101 98 96 99 99 98 100 100 94 88 83 76 74 76 78 84 88 88 88 85 79 78 79 79 74 67 69 73 62 46 34 23 16 12 11 11 13 14 15 15 13 14 18 23 26 27 27 28 29 31 34 36 37 39 39 41 41 40 40 42 45 49 50 51 49 48 47 46 45 46 45 45 44 45 45
100 100 99 99 100 99 97 94 93 95 98 98 98 99 97 95 95 95 93 90 85 82 83 82 82 86 90 92 91 85 81 81 79 77 73 68 71 74 67 57 44 26 17 14 11 11 13 14 16 16 16 18 21 24 26 26 27 28 31 36 40 43 48 54 57 57 57 56 52 49 49 49 49 50 50 48 46 45 44 44 44 45 44 44 46
100 100 99 99 100 100 96 91 92 96 97 97 96 94 91 87 83 83 87 89 90 90 88 88 92 95 92 92 93 88 86 84 77 76 74 70 74 74 67 64 54 37 26 20 15 14 14 14 16 17 19 22 23 25 25 26 26 28 34 43 49 55 61 66 69 67 64 62 60 60 59 59 60 60 59 58 55 53 52 50 47 46 45 45 45
100 100 100 100 100 100 98 95 97 98 96 95 94 94 93 87 82 83 83 85 90 94 94 94 99 99 91 89 91 91 89 83 78 77 73 71 77 76 70 68 60 52 45 33 24 20 16 15 16 17 20 21 22 24 24 25 27 30 39 52 59 63 67 68 70 69 67 65 63 63 62 62 63 63 63 64 64 63 63 63 61 54 47 46 47
100 99 100 100 99 100 100 98 99 98 97 97 97 99 98 93 93 93 90 90 95 98 100 99 100 100 95 92 93 91 88 84 80 78 75 77 80 72 67 66 58 55 54 45 39 34 25 21 21 19 21 23 24 26 27 28 31 34 45 61 72 75 75 74 74 73 72 72 71 70 70 69 68 67 65 64 63 63 64 66 68 65 57 50 48
100 100 100 100 98 100 101 99 99 99 98 97 96 99 99 96 97 99 98 98 99 99 100 99 100 100 98 99 97 89 81 79 78 76 76 80 74 57 52 55 52 50 50 48 53 52 41 34 28 22 24 27 28 32 35 35 34 39 53 69 77 80 80 80 80 79 77 76 75 74 75 76 77 76 74 70 66 64 64 64 67 71 69 61 53
100 99 99 98 96 98 100 100 100 100 99 97 95 97 99 98 99 100 100 100 100 100 100 100 100 100 99 100 99 90 82 82 82 79 79 83 74 56 46 45 45 43 43 51 66 68 58 51 41 30 28 30 31 33 36 36 36 44 60 73 78 79 78 77 77 77 76 75 74 73 72 72 75 77 78 77 74 72 71 71 71 73 76 75 67
97 97 99 99 97 98 99 99 100 100 100 100 97 95 97 100 100 99 99 99 99 100 100 99 99 99 96 93 93 91 89 89 88 84 84 87 81 67 56 49 45 45 50 62 74 74 65 57 50 43 42 42 42 40 39 43 50 57 65 73 78 79 78 76 76 76 76 76 76 73 70 68 67 70 73 75 77 79 79 78 78 79 81 82 79
95 96 99 100 100 100 99 100 101 100 100 100 98 97 98 101 100 99 99 99 100 99 99 100 100 99 96 92 92 96 97 96 95 92 89 89 86 80 74 61 51 57 69 75 76 70 61 53 49 48 52 56 59 60 61 65 69 73 75 77 79 80 79 78 77 77 78 79 78 75 72 69 68 69 71 72 74 78 80 82 85 86 85 86 86
93 89 89 92 97 99 100 100 99 100 100 100 100 100 100 100 99 99 99 100 99 99 99 100 100 100 100 98 97 98 97 97 97 94 90 91 91 89 81 63 54 67 82 82 77 72 62 54 54 58 61 62 62 66 73 77 78 78 77 77 77 78 80 81 80 80 81 81 80 78 75 72 72 73 74 73 73 74 79 86 92 92 92 92 89
89 83 79 80 84 90 96 99 100 100 99 99 100 100 100 100 100 100 100 100 99 100 100 100 100 99 100 99 99 99 97 95 92 88 87 88 88 85 77 68 69 83 89 83 78 73 62 55 56 59 59 57 56 61 70 77 78 79 79 79 80 80 81 81 81 82 83 83 82 81 78 76 77 78 77 75 74 74 80 90 95 95 95 95 92
87 86 83 78 75 78 82 86 89 91 93 95 98 98 98 99 98 97 97 98 98 97 98 99 100 100 100 99 98 97 96 93 91 90 90 88 84 83 81 80 83 87 83 78 75 69 61 57 58 58 60 63 67 72 76 77 77 79 81 80 79 80 83 84 83 83 84 84 84 82 81 82 82 80 78 74 73 76 83 91 95 95 97 97 95
89 89 89 85 81 80 78 78 77 77 78 81 84 88 91 90 89 88 87 88 87 86 86 88 91 94 96 98 99 98 97 96 95 96 95 90 87 89 90 88 86 84 79 77 79 77 72 69 69 70 72 75 79 82 83 82 81 82 82 78 73 75 80 83 83 82 82 83 83 84 85 85 84 81 78 75 75 79 86 91 93 93 94 94 94
88 88 88 85 84 82 81 81 81 79 78 77 74 75 78 77 77 78 78 76 72 70 72 75 79 83 86 91 95 97 99 100 100 100 99 96 93 94 96 94 93 92 89 87 88 87 83 81 80 80 80 78 78 80 83 84 82 80 79 76 73 74 78 80 82 82 83 84 85 84 83 82 82 81 77 75 77 81 87 91 92 91 91 92 91
80 83 85 84 81 79 78 77 75 72 74 77 76 73 72 71 71 71 72 70 65 63 62 62 66 72 76 80 84 87 89 90 91 94 97 97 95 95 98 99 99 99 98 97 95 91 89 90 90 89 88 82 75 74 80 87 88 85 82 80 81 82 83 83 84 84 83 83 81 80 78 79 82 82 78 76 78 81 84 88 90 91 90 85 77
65 69 74 76 76 74 73 70 66 60 57 61 70 75 74 72 72 70 69 68 65 64 63 59 58 60 62 66 69 71 74 75 77 80 85 88 87 86 87 90 92 93 94 96 95 92 93 96 95 92 91 89 86 86 89 90 90 88 85 83 83 82 81 80 79 79 79 80 79 80 81 83 86 86 83 82 82 81 78 76 78 81 80 73 65
51 50 52 55 58 58 57 56 54 51 45 44 53 61 64 67 69 68 65 63 62 62 63 63 62 60 58 57 56 56 57 60 61 64 69 71 71 71 71 73 76 79 81 81 81 80 81 82 83 83 84 85 87 88 86 83 82 80 80 79 78 77 77 77 78 79 80 82 84 85 85 85 86 87 88 89 91 88 80 71 70 74 75 74 72
52 49 46 44 45 48 51 51 49 47 45 42 41 41 43 50 56 56 53 53 54 53 53 54 57 59 58 57 56 55 54 52 51 52 54 55 55 56 59 60 63 66 68 69 69 69 69 68 68 71 75 76 77 76 75 75 76 76 77 78 78 79 79 79 78 78 80 83 86 86 85 83 82 84 87 91 96 97 89 79 77 80 81 82 81
54 55 53 49 48 50 52 53 51 49 47 44 40 37 34 35 39 40 37 37 38 38 38 38 40 43 45 46 49 51 51 50 50 49 48 47 47 48 49 52 55 58 60 62 63 64 65 65 62 61 62 65 67 69 69 70 71 72 73 75 77 80 80 79 77 75 74 77 81 82 82 79 76 76 78 83 92 99 97 89 87 91 90 89 88
56 58 57 55 55 56 54 52 51 49 45 43 42 39 35 32 34 35 33 31 30 30 29 27 27 27 27 28 31 32 34 36 37 37 38 38 37 38 40 41 44 46 47 49 51 52 55 56 56 55 54 56 58 60 62 63 64 65 66 66 69 73 76 77 78 75 73 72 73 76 78 76 70 64 60 64 77 91 99 97 96 98 96 93 90
57 59 59 57 54 52 50 48 48 47 45 43 43 41 38 37 39 38 35 33 32 31 28 26 24 23 22 21 21 20 20 21 20 21 22 23 23 25 26 27 28 29 30 31 33 34 36 38 41 42 43 44 45 46 49 52 54 56 59 59 61 65 68 71 72 73 73 74 76 78 77 76 74 66 55 52 65 85 98 99 97 99 99 96 92
57 58 56 51 45 44 45 46 47 47 47 46 45 45 44 44 43 40 37 36 33 30 27 26 25 24 24 23 23 21 20 19 18 18 17 16 17 17 17 18 19 19 19 19 19 20 21 22 23 25 26 26 26 27 30 36 41 46 50 51 51 53 58 60 60 61 63 65 66 66 64 63 66 67 61 53 59 78 94 98 98 100 100 98 96
56 54 47 41 40 43 47 50 51 50 50 48 47 46 46 45 42 39 37 34 32 29 28 28 27 27 27 27 27 28 27 26 25 25 24 23 22 20 19 20 20 19 19 19 18 19 20 20 20 20 20 20 19 19 20 22 24 26 29 31 33 37 43 48 51 52 53 54 55 58 59 57 55 58 59 54 51 58 71 85 96 97 90 89 95
53 49 40 38 46 53 56 55 53 52 51 50 48 46 45 43 40 38 35 32 32 31 31 31 31 30 30 30 32 35 37 37 35 33 31 30 29 28 28 28 27 26 26 25 26 26 26 26 26 26 26 25 24 24 25 25 26 26 26 26 26 28 32 38 43 46 50 53 56 60 65 65 60 58 58 54 51 51 56 70 85 84 78 84 95
53 44 33 37 52 62 62 59 58 56 53 50 48 46 44 41 39 37 35 34 36 37 37 36 36 35 35 37 38 40 42 44 43 41 39 38 37 36 35 33 31 29 28 27 27 26 26 27 27 28 28 29 28 29 30 30 31 32 32 32 32 32 32 34 37 40 47 59 70 75 77 76 70 66 62 55 52 53 57 67 77 78 77 83 87
49 36 27 35 52 63 65 64 64 61 56 53 49 45 43 41 39 37 37 39 42 42 42 43 42 42 44 45 45 45 44 43 41 39 37 38 38 37 35 32 29 27 26 25 24 23 22 22 22 23 24 25 26 28 30 32 34 35 35 35 35 35 35 37 38 39 49 68 82 82 80 79 78 76 73 64 57 56 59 65 74 78 79 78 76
Wind_Speed
22 24 24 28 29 26 24 23 22 21 18 15 13 15 19 21 20 19 19 18 19 18 19 19 19 17 15 16 17 17 17 16 16 15 16 16 16 14 13 12 10 9 9 9 9 9 9 10 10 10 10 9 9 8 8 8 8 9 9 10 9 8 8 8 9 8 7 8 9 8 8 8 7 7 6 6 6 6 5 5 6 6 6 6 6
21 24 25 27 27 26 25 23 20 20 19 15 13 15 18 19 18 19 18 18 19 20 19 18 16 15 16 16 17 16 16 15 15 15 15 15 15 13 12 11 9 9 9 9 9 9 10 10 10 11 10 10 9 9 9 9 9 9 9 9 10 9 8 8 9 8 6 7 8 8 7 6 5 5 5 5 4 5 5 5 6 7 7 6 6
20 24 26 26 27 26 24 21 18 17 17 14 14 16 17 18 20 20 19 18 20 19 17 17 16 15 15 15 15 15 15 15 14 14 14 14 14 14 12 11 9 9 9 9 9 10 10 10 11 11 11 10 10 9 9 9 9 9 9 9 9 9 9 8 9 8 6 6 7 6 6 5 5 4 5 5 4 4 5 5 5 6 6 6 6
19 23 25 25 25 23 21 19 16 15 14 12 13 14 15 19 23 22 18 19 20 20 18 18 17 16 14 14 15 14 15 15 14 14 14 14 14 14 13 11 10 9 9 9 10 10 11 11 11 11 11 10 9 8 9 9 9 9 9 9 8 9 9 9 9 8 6 6 6 6 6 6 5 5 6 6 5 5 5 4 5 5 5 6 6
18 21 25 25 24 21 19 17 15 15 14 12 12 13 15 18 21 20 17 18 20 21 21 19 18 17 17 17 16 15 16 16 16 17 16 15 15 14 13 12 11 10 9 10 10 11 11 11 10 10 10 10 9 9 8 8 8 8 9 8 7 8 8 8 9 9 7 7 6 5 5 5 5 7 7 6 6 6 6 4 4 5 5 6 5
18 20 23 24 22 19 18 16 14 14 13 12 12 13 16 17 17 18 18 19 20 21 21 19 18 19 19 18 18 17 17 16 16 16 17 16 15 14 13 13 11 10 10 10 10 11 10 10 10 9 9 8 8 8 8 7 7 7 6 7 7 8 8 8 9 9 9 9 8 5 3 3 5 8 6 6 7 6 5 5 5 6 6 6 5
21 22 23 22 21 19 18 15 14 15 14 12 13 15 17 17 16 18 20 21 21 21 20 19 19 19 18 17 16 16 16 15 15 15 15 15 15 15 14 13 12 11 11 11 11 10 10 9 9 8 8 7 7 7 6 6 6 6 6 6 7 8 9 8 8 9 9 10 10 6 3 2 3 6 6 7 8 6 5 5 5 6 6 6 6
21 22 22 21 19 18 17 15 14 15 15 13 14 16 17 17 17 18 20 21 20 20 20 19 19 20 18 15 14 14 14 14 14 14 15 15 15 15 14 13 12 12 12 11 11 11 10 9 8 8 7 7 7 7 6 6 6 6 6 6 7 7 8 8 9 9 9 9 10 8 6 3 2 4 6 6 8 9 7 6 6 6 6 7 7
17 19 19 18 17 15 13 13 13 14 14 14 15 18 17 16 17 18 19 20 20 19 19 19 19 19 17 14 13 14 13 13 14 14 15 15 15 14 14 13 13 13 13 12 11 10 9 9 8 8 7 7 7 7 7 6 6 6 6 6 6 6 7 8 8 9 8 8 9 8 8 5 2 4 6 6 7 9 9 8 8 7 7 8 8
14 15 15 14 12 10 10 12 13 13 14 16 17 18 18 17 18 20 20 20 19 19 19 19 19 18 16 14 13 14 14 14 15 15 15 15 15 14 14 13 13 12 12 11 10 9 8 8 8 8 8 7 7 7 7 6 6 6 6 6 6 6 7 8 7 8 8 8 8 8 8 7 5 4 6 7 7 7 8 10 9 7 7 8 8
10 10 10 9 8 8 8 10 12 12 13 15 17 19 18 17 20 20 20 20 19 19 19 18 18 17 15 14 14 14 14 15 15 15 16 16 15 15 14 12 12 11 11 10 9 8 8 7 7 7 7 7 7 7 7 6 6 6 6 6 7 6 7 7 6 6 7 8 7 6 6 6 5 4 5 7 7 7 9 11 9 7 7 9 10
8 8 7 5 5 5 4 7 8 9 12 13 15 18 18 17 20 20 21 21 20 20 19 18 18 16 15 14 14 14 13 13 13 14 15 15 15 15 13 12 11 11 10 9 9 8 7 7 6 5 5 6 6 7 6 6 6 6 6 6 6 5 5 5 4 4 4 5 6 6 5 5 5 3 4 6 7 7 10 12 10 8 8 10 12
14 13 10 7 6 5 6 8 7 8 13 14 14 16 16 16 19 20 20 21 20 19 18 18 17 16 15 14 14 13 12 11 11 12 14 15 15 15 13 12 12 11 10 9 8 8 8 7 6 4 3 4 5 6 6 7 7 7 6 5 5 4 4 3 3 3 3 3 4 4 5 7 7 5 5 7 8 8 10 10 10 8 8 10 11
14 13 12 13 13 11 13 12 9 11 15 14 13 13 13 14 17 18 18 19 19 18 17 17 16 14 14 14 14 13 11 10 9 10 12 13 14 13 11 10 10 10 10 10 9 9 9 8 5 3 3 4 6 7 8 8 8 8 7 7 6 6 6 6 6 6 6 5 4 4 5 8 8 7 6 8 7 6 8 11 12 11 10 10 10
13 13 13 13 12 12 14 14 10 11 14 14 14 13 11 13 15 16 16 16 16 16 16 15 15 15 15 15 14 13 10 8 9 10 11 11 12 12 10 9 9 9 10 10 10 10 9 7 4 3 3 5 8 9 9 9 8 8 8 7 7 7 7 7 8 7 6 5 3 3 4 7 9 8 7 7 5 4 8 10 10 11 13 12 11
11 12 13 12 10 9 11 14 12 9 12 14 15 15 14 15 17 18 17 15 14 16 16 15 16 16 16 17 15 13 10 8 9 11 10 10 11 11 9 9 9 9 10 11 12 11 9 7 5 4 5 6 9 10 10 9 9 9 9 7 7 7 7 7 6 6 5 5 4 3 3 6 8 8 8 8 7 8 9 8 6 9 14 15 13
10 11 12 10 8 7 7 11 13 11 12 14 15 16 17 17 19 19 19 18 18 19 18 17 17 18 17 18 16 13 10 8 9 10 11 11 12 11 9 9 9 9 11 13 13 12 10 7 6 5 6 7 8 10 11 10 10 9 8 7 6 6 6 5 4 3 3 4 5 4 4 5 7 8 8 9 10 11 11 10 9 7 11 14 15
10 12 12 10 7 7 5 7 12 14 14 13 14 16 17 17 18 19 20 21 21 21 19 18 18 18 17 18 16 14 11 9 8 10 12 12 12 11 9 8 8 9 13 14 13 12 10 8 7 7 7 7 7 9 11 11 10 8 7 6 5 5 5 4 4 5 5 5 6 6 5 5 6 7 9 11 13 14 13 13 13 10 8 9 12
9 12 12 8 8 8 8 9 12 15 14 13 14 17 17 17 17 17 19 20 20 20 19 18 18 17 16 15 14 13 12 10 10 11 13 12 12 11 9 8 8 9 12 14 12 11 10 9 9 8 8 8 8 9 10 11 10 9 7 6 5 4 3 4 6 8 8 8 7 7 6 6 6 8 11 14 14 14 13 11 10 10 10 8 7
9 10 7 5 6 8 10 13 14 13 13 14 15 16 18 19 17 17 18 18 20 20 19 19 19 17 15 14 13 13 12 10 10 11 12 11 11 11 9 9 9 8 10 12 12 10 10 10 10 10 9 9 8 9 10 11 10 9 7 5 4 4 3 5 9 10 9 8 8 7 6 6 8 11 14 15 15 14 13 9 5 6 8 8 7
10 8 6 5 6 6 9 14 15 13 13 14 14 15 18 20 19 18 19 20 21 21 20 19 18 17 16 14 14 13 12 10 10 10 10 10 10 10 9 9 9 9 9 10 11 10 10 10 10 10 10 10 9 10 11 11 10 9 7 6 5 5 6 8 9 9 10 9 8 6 6 7 10 13 14 14 14 13 12 8 4 2 3 5 6
10 8 8 7 6 7 9 13 14 14 14 15 15 16 17 19 20 19 20 22 22 21 20 19 18 18 16 14 14 14 13 12 11 10 9 9 10 10 10 9 10 10 9 9 10 10 11 11 11 11 10 10 10 10 11 12 11 10 8 7 7 7 8 8 7 7 9 9 9 7 6 7 10 11 12 12 11 10 8 6 3 2 3 3 4
9 7 6 5 4 5 8 11 12 12 13 14 13 14 16 18 18 18 18 21 22 20 20 19 18 18 16 16 16 15 14 13 12 11 10 9 10 11 10 10 11 11 9 9 10 10 11 12 11 11 10 10 11 12 13 13 12 11 10 9 9 8 8 7 6 5 5 6 7 7 7 7 8 8 8 8 7 7 6 4 3 2 4 5 5
9 8 7 5 4 4 6 9 9 8 11 12 9 8 14 17 15 15 16 19 21 20 19 19 18 18 18 17 17 16 15 15 14 12 11 10 11 11 10 11 11 10 9 10 11 12 12 12 12 11 11 11 12 13 13 13 13 12 11 9 8 8 7 6 5 3 3 3 3 5 5 5 5 6 6 6 5 5 5 4 4 5 6 8 8
11 10 8 7 7 6 6 5 7 7 9 12 13 11 14 15 14 14 15 18 20 20 19 18 19 19 19 19 18 16 16 16 15 13 12 11 12 12 11 11 11 10 9 10 12 13 13 13 12 12 12 12 13 13 13 12 12 11 10 9 8 7 6 6 5 4 3 3 3 4 5 5 5 5 5 5 5 5 5 6 6 7 8 9 9
15 14 12 11 10 8 7 6 5 5 4 9 14 14 13 12 12 12 14 16 18 19 19 19 19 20 21 20 19 17 17 17 17 14 12 12 12 12 11 12 12 10 10 10 11 13 13 13 13 12 13 13 13 13 12 11 11 10 9 8 7 6 5 5 4 4 3 2 2 3 4 5 6 6 6 7 6 6 6 6 6 6 7 8 9
19 18 16 15 14 12 11 10 8 6 5 5 8 9 8 8 8 9 11 13 15 17 19 19 19 21 22 21 19 18 20 19 18 15 13 13 14 12 11 11 11 10 9 9 11 12 12 12 12 12 13 13 12 12 11 10 9 9 8 7 6 5 5 4 4 3 3 2 2 2 3 4 4 5 6 6 6 6 6 6 6 6 6 6 7
22 21 20 18 18 16 14 11 11 11 9 7 6 5 4 4 5 6 8 10 12 15 17 18 19 21 22 20 17 18 18 16 15 16 15 14 15 13 11 10 11 10 9 8 9 10 10 11 11 11 12 11 11 10 10 9 8 7 6 6 5 6 6 5 4 3 3 2 2 2 3 4 4 4 5 5 6 6 6 6 6 6 6 6 6
24 24 22 21 20 18 16 14 13 13 12 10 10 9 6 5 7 8 8 9 11 14 16 18 20 20 19 16 15 16 14 12 15 18 17 16 16 14 11 10 10 10 9 8 7 7 7 8 10 11 11 11 11 10 10 10 8 7 6 5 5 5 5 6 5 4 4 4 4 5 6 6 6 7 7 8 8 8 8 9 8 8 8 8 8
25 24 22 21 19 18 19 18 16 15 14 13 13 12 10 8 7 7 8 10 12 13 14 17 19 18 16 15 14 14 12 12 16 17 17 19 19 15 12 11 10 10 9 8 7 6 6 8 9 10 11 11 12 11 11 10 9 8 7 7 5 4 4 4 5 5 6 6 7 8 9 9 9 10 10 10 10 10 11 11 11 11 10 11 11
25 23 22 20 17 17 19 19 18 17 15 13 13 13 13 12 10 9 9 10 10 9 9 11 14 15 15 14 14 14 13 13 15 17 19 21 19 16 13 12 12 10 8 7 8 7 8 8 9 10 11 11 12 12 11 10 10 9 9 8 6 5 5 5 5 6 7 8 10 11 11 12 12 12 13 13 13 14 14 14 14 13 13 13 14
24 23 21 19 17 17 18 19 19 19 17 14 13 13 13 13 12 11 10 9 8 6 5 4 6 9 11 12 13 14 16 17 17 19 22 21 19 19 20 17 15 14 12 10 9 9 9 9 9 10 11 11 12 13 12 12 11 11 11 10 9 8 7 7 7 8 9 10 11 12 13 13 14 14 15 16 16 17 17 17 16 16 15 15 16
23 24 21 20 18 18 18 18 18 18 17 15 14 12 12 12 12 11 10 9 8 6 5 3 2 2 4 7 9 11 15 17 17 18 19 18 18 20 22 20 18 18 17 13 9 9 10 10 10 10 10 10 11 12 13 12 12 12 12 11 11 10 10 10 10 10 11 12 13 14 14 14 14 15 16 17 18 19 19 19 18 17 17 17 17
23 25 24 22 21 20 19 18 18 17 16 16 15 13 12 12 11 10 9 9 8 7 6 5 3 3 2 3 8 12 15 16 15 15 16 16 18 19 20 21 20 17 15 13 11 11 11 11 11 11 10 10 11 12 13 13 13 12 12 13 13 13 13 12 12 13 13 14 15 15 15 16 16 16 17 17 19 20 20 19 19 18 18 17 17
26 27 27 25 23 23 22 20 19 18 17 16 17 15 13 11 10 9 9 9 8 8 9 8 7 7 7 5 6 10 12 13 12 12 13 15 17 18 19 21 21 18 15 14 13 13 13 12 12 12 11 11 11 13 14 14 13 13 13 14 15 15 15 15 15 15 15 16 16 17 17 17 18 18 18 18 19 19 19 18 18 18 18 18 18
29 30 29 28 26 25 24 23 22 20 19 18 18 17 16 14 13 12 13 12 11 10 11 11 10 10 9 7 5 5 6 8 9 10 11 13 14 15 17 18 18 16 15 14 15 15 14 13 12 12 12 11 12 14 15 15 15 15 16 16 17 18 18 17 17 17 17 17 18 18 18 19 19 20 20 18 18 18 16 16 17 17 18 19 19
27 28 29 29 29 28 26 25 24 23 21 20 18 18 19 19 19 20 19 18 17 17 18 17 15 13 11 9 6 4 3 4 6 8 9 10 11 12 14 15 15 16 15 16 16 15 14 14 14 14 13 13 13 14 15 16 17 18 19 20 20 21 20 19 18 18 18 19 19 19 19 20 22 21 19 16 16 15 14 14 15 16 17 18 19
23 23 24 25 26 25 25 25 26 25 23 21 18 18 19 20 21 22 22 22 21 21 21 21 20 19 16 12 9 6 5 5 5 6 7 9 10 11 12 13 13 14 15 16 16 15 15 15 16 16 15 15 15 15 15 17 18 19 21 21 22 22 21 20 20 20 20 20 20 20 21 22 22 20 17 15 14 14 13 14 15 16 17 18 19
20 19 19 20 21 21 20 21 22 23 21 19 17 18 19 20 21 20 20 22 23 22 21 20 20 19 17 15 14 11 8 7 5 4 4 6 7 8 9 9 11 13 15 16 15 14 14 15 16 16 16 16 17 17 17 17 18 20 21 22 22 22 21 21 21 21 21 21 22 22 23 22 20 16 14 13 13 12 13 14 16 17 17 18 17
18 15 14 14 15 16 16 17 18 19 17 14 13 14 17 18 18 18 19 20 20 19 18 17 17 16 15 14 13 12 11 10 8 6 5 3 2 3 4 4 5 8 10 12 12 12 12 12 13 13 12 12 15 18 18 17 17 18 20 21 20 20 20 20 21 21 22 22 23 22 21 17 14 12 13 14 14 13 13 14 15 16 16 15 14
18 16 13 13 13 13 14 15 17 17 16 13 9 8 11 13 12 13 16 16 16 15 14 13 13 13 12 12 11 10 9 9 9 7 5 3 2 1 1 1 1 1 3 5 6 6 7 8 8 8 9 9 11 13 14 14 14 15 17 19 19 19 18 18 19 19 19 19 18 17 15 12 11 11 13 14 14 14 14 14 14 15 15 13 12
18 17 15 15 16 17 17 18 18 17 17 15 9 7 9 8 7 9 11 11 11 10 10 9 9 9 9 9 8 8 7 7 7 6 5 4 4 5 4 4 3 3 1 0 0 0 1 2 2 2 5 6 7 8 10 11 11 12 13 14 15 16 15 15 15 15 14 13 12 12 12 11 12 13 14 14 15 16 16 16 16 16 16 15 15
18 18 16 15 17 18 19 19 18 16 16 14 11 10 10 9 8 8 9 8 8 8 8 7 7 6 6 6 6 5 5 5 5 4 4 3 4 4 4 3 2 1 0 1 1 1 1 2 3 3 3 5 6 7 8 9 10 10 11 11 12 13 13 13 13 12 12 12 12 12 13 13 14 14 14 16 17 18 19 19 19 19 19 19 19
17 17 16 16 16 17 17 17 16 14 14 13 12 12 11 9 9 9 8 7 7 8 8 7 7 7 7 7 6 5 5 5 5 5 5 5 5 5 5 4 5 5 5 5 6 6 6 7 8 8 8 9 10 10 11 11 11 11 12 12 13 13 13 14 14 14 15 16 16 16 15 15 16 15 15 17 19 22 24 24 23 23 24 24 23
16 16 15 14 15 14 13 13 13 12 12 11 11 11 9 10 10 9 8 7 8 8 8 7 7 6 6 6 6 6 6 6 6 6 6 6 7 7 7 8 8 9 10 10 10 11 11 12 13 14 14 14 14 15 15 15 16 16 17 18 18 17 17 17 18 18 19 21 21 20 20 19 19 18 18 19 20 23 27 27 26 27 28 28 26
14 14 13 12 12 11 11 10 10 10 10 11 11 10 9 10 10 9 8 8 8 7 7 7 7 6 6 5 5 5 5 6 6 6 6 6 7 7 7 8 9 10 10 11 12 13 13 14 16 17 17 17 17 18 18 19 20 22 23 24 24 23 22 22 22 22 23 25 25 24 22 22 22 21 22 23 23 24 27 29 30 31 30 28 26
13 13 12 11 11 10 10 10 9 10 10 11 11 10 10 11 10 9 9 8 8 7 7 6 6 6 6 6 6 5 5 5 5 5 6 6 6 6 7 7 8 8 9 10 11 12 12 13 14 15 15 16 16 17 18 20 21 22 23 24 23 23 24 24 24 24 25 26 26 25 24 24 26 27 25 24 24 25 26 27 30 31 28 23 21
12 11 11 12 12 12 11 10 10 10 10 10 10 10 10 10 10 10 9 9 8 7 6 6 5 5 6 6 6 6 6 5 5 5 5 5 5 5 6 6 6 7 7 8 9 9 10 10 11 11 12 13 14 14 15 17 18 19 20 20 20 20 21 22 22 23 24 25 24 24 24 26 30 31 27 23 24 26 27 26 26 25 21 17 16
11 11 12 12 13 12 12 12 11 10 10 10 10 10 10 10 10 10 9 8 8 7 7 6 6 7 7 7 8 8 8 7 7 7 7 7 7 7 7 7 7 7 8 8 9 9 9 10 10 11 11 11 11 12 13 14 14 15 16 17 18 18 18 19 19 20 21 22 22 22 22 23 26 27 25 23 24 28 29 27 23 19 17 16 17
11 12 12 13 13 13 13 13 12 11 11 10 11 10 10 10 10 9 9 9 9 9 8 9 9 9 9 10 10 11 11 11 10 10 10 10 10 10 10 10 10 10 11 11 11 11 11 11 10 11 11 12 11 11 12 12 13 14 14 15 16 16 16 17 17 18 19 20 20 20 20 20 21 23 24 24 25 27 27 25 22 19 20 21 22
11 12 12 12 12 12 12 13 12 12 12 11 11 11 10 10 9 9 9 10 10 10 11 11 11 11 12 12 13 13 13 13 12 12 11 10 10 10 11 11 11 11 11 11 11 12 12 12 11 11 11 12 12 12 12 13 13 13 14 14 15 15 14 14 15 16 17 18 18 17 16 16 17 20 22 23 25 26 27 26 24 23 25 27 28
Wind_Direction
200 189 199 204 200 204 217 224 226 229 226 219 217 209 209 213 210 211 210 205 200 196 194 195 196 190 178 179 182 180 183 184 183 183 182 182 182 183 182 183 187 189 193 197 204 210 212 214 213 212 208 198 194 193 195 199 195 193 195 193 195 202 201 189 181 179 185 184 177 179 179 178 178 175 169 159 151 148 149 162 171 184 191 183 179
212 198 200 206 208 216 226 230 228 222 218 211 204 206 212 214 211 208 203 198 193 192 197 195 191 186 181 182 182 181 183 182 182 182 181 183 184 185 185 189 195 195 199 201 203 209 211 212 211 209 203 195 193 197 199 200 198 193 194 198 197 196 202 199 187 179 186 190 180 170 164 162 163 165 158 144 145 144 139 153 171 184 190 186 186
215 208 206 208 213 220 225 229 225 216 213 205 198 206 211 210 213 212 203 195 191 192 196 192 186 182 181 180 179 181 181 179 182 184 183 187 189 188 191 197 200 199 199 199 201 206 207 207 206 203 200 197 197 201 204 200 196 191 192 205 206 199 199 201 194 188 187 186 179 171 164 155 144 146 149 136 135 139 131 146 163 171 180 185 187
210 211 210 209 213 218 223 224 216 208 204 195 200 210 207 204 209 211 206 197 191 191 193 190 182 176 173 174 176 179 180 180 184 186 187 191 192 194 197 197 195 194 193 195 199 202 202 200 200 201 200 200 198 201 206 203 198 193 195 206 210 207 203 201 200 196 190 181 176 177 172 163 153 157 156 137 130 134 130 141 151 150 162 170 171
207 212 211 209 212 216 221 220 208 202 198 194 208 214 206 205 206 207 209 200 191 190 190 185 179 174 171 172 174 176 180 185 187 188 191 193 195 196 195 191 186 187 189 193 195 196 198 197 195 197 199 199 195 195 199 198 198 197 201 208 211 215 211 209 210 203 195 184 177 174 167 172 175 165 152 133 138 142 132 138 142 136 146 156 157
209 214 213 211 213 214 216 213 202 198 198 199 209 213 211 210 207 205 207 201 194 191 186 180 177 176 176 176 178 179 181 186 188 191 193 192 192 191 188 186 183 184 187 188 190 190 193 193 192 192 194 195 190 191 194 190 194 197 203 212 214 217 214 213 217 213 206 193 180 175 166 176 183 174 159 140 140 134 131 143 137 135 145 151 150
213 219 218 216 215 214 213 207 198 201 202 199 205 210 210 210 205 200 198 197 194 188 182 178 177 175 177 180 183 184 186 188 188 189 190 187 185 185 186 185 182 184 185 184 184 183 182 183 184 183 183 185 180 181 182 178 185 190 194 202 205 211 211 208 212 215 213 204 192 188 183 151 156 172 168 153 142 128 139 150 128 130 139 139 141
214 220 220 220 220 217 213 204 200 210 206 193 198 206 206 203 196 191 190 190 188 184 180 176 174 174 178 184 187 189 192 192 187 183 185 183 181 184 187 186 185 184 182 180 177 173 171 172 174 174 177 179 176 173 173 172 182 190 191 193 198 208 208 204 208 210 212 215 209 199 192 176 126 151 161 157 151 142 145 145 127 132 140 136 140
218 224 223 222 221 214 209 197 196 214 208 188 193 204 204 196 189 187 186 185 183 181 178 174 173 177 182 186 187 189 192 193 189 183 183 182 181 186 188 187 185 182 179 175 172 170 169 170 172 177 182 185 185 183 182 182 191 204 209 204 205 211 209 205 208 209 212 223 224 213 209 212 194 166 168 164 153 147 152 154 144 148 151 139 135
219 229 227 227 224 210 200 189 193 212 202 186 194 203 203 195 188 187 184 183 181 177 176 174 176 181 184 186 187 188 187 190 191 185 183 183 184 186 186 186 186 182 177 172 171 175 176 174 177 182 189 193 196 194 190 191 199 214 221 213 208 208 207 205 205 209 211 214 219 221 225 228 227 204 183 168 154 150 158 160 156 158 150 135 128
217 226 223 223 212 195 197 199 204 211 192 185 197 204 204 195 189 187 183 181 178 174 176 178 179 182 185 185 188 190 188 189 192 189 186 185 183 183 182 180 181 178 175 172 173 177 176 173 175 182 191 194 196 194 192 196 197 205 213 208 204 203 201 202 207 214 209 198 198 210 220 221 228 237 203 177 168 154 151 155 157 151 138 134 133
174 153 136 121 148 160 194 222 227 216 197 193 199 206 208 196 190 189 183 180 178 176 179 180 183 186 186 187 188 191 190 189 194 193 187 184 180 178 172 166 167 168 169 168 167 168 166 164 162 164 173 182 191 196 196 193 180 176 184 189 191 193 191 196 206 210 197 185 189 199 194 176 181 212 214 194 184 158 149 154 153 141 129 131 134
152 149 144 147 175 165 166 203 224 210 202 203 202 211 214 198 191 192 185 181 180 180 181 182 188 191 188 188 186 187 189 189 196 195 186 181 178 175 166 158 159 160 164 166 164 162 159 155 146 139 149 172 187 191 184 172 160 151 147 149 152 151 154 154 146 130 123 136 163 182 182 168 169 185 196 193 184 159 148 148 141 135 131 128 128
163 175 174 176 186 179 175 192 207 198 198 202 200 208 215 200 195 197 193 187 182 181 184 186 190 192 189 186 181 182 189 192 196 194 186 180 177 173 162 155 156 157 162 167 166 161 153 144 130 117 136 166 172 169 163 157 151 143 132 124 123 119 115 109 99 96 93 98 120 144 171 175 176 183 184 185 183 163 154 150 140 134 131 127 128
160 164 157 157 170 183 190 194 199 199 195 193 193 198 205 203 199 201 204 198 184 182 189 192 192 188 184 181 177 180 188 195 195 190 184 179 173 168 160 155 157 159 164 168 167 159 148 135 118 109 129 152 161 160 157 156 148 139 130 118 114 112 105 99 95 91 86 82 92 118 158 173 176 178 174 173 174 162 158 151 140 138 135 131 133
142 145 141 143 164 190 201 194 190 201 206 198 191 192 200 203 199 198 203 200 189 187 194 196 192 185 180 175 174 177 183 190 193 186 180 174 164 159 158 159 160 163 167 167 164 155 144 132 122 119 123 140 160 163 160 157 147 137 130 120 118 115 103 98 98 92 84 74 66 86 142 169 175 170 164 161 152 149 146 128 124 147 145 140 139
129 133 125 127 171 205 215 199 184 186 212 209 193 193 202 203 197 195 197 194 190 193 197 197 192 186 180 174 173 177 180 185 190 182 178 174 163 156 157 161 163 166 166 163 159 152 143 135 133 129 123 128 151 163 164 160 148 138 132 124 121 116 103 98 95 88 96 81 61 68 113 152 167 162 157 151 137 137 131 105 102 138 150 148 147
119 128 118 115 164 196 201 197 186 189 212 218 203 204 209 204 198 196 196 193 190 194 197 197 195 189 182 176 175 179 180 182 184 178 175 173 166 161 158 159 162 164 164 162 158 153 147 142 141 137 131 126 134 153 163 163 154 147 142 135 128 121 111 98 83 86 99 90 65 65 93 126 151 148 142 135 126 130 129 104 96 104 115 133 148
113 125 120 125 163 185 184 188 195 198 208 210 208 216 216 208 204 201 200 197 194 197 198 195 196 193 187 181 180 184 185 184 179 175 174 171 166 163 160 161 164 163 163 163 161 157 152 147 148 148 145 137 132 142 154 160 160 159 159 159 151 142 129 96 88 92 95 89 74 69 80 105 128 129 131 130 126 132 136 119 100 99 100 100 122
115 131 130 139 167 187 193 194 196 195 194 197 207 219 217 211 211 208 205 202 200 203 202 198 198 197 195 191 190 192 193 192 183 175 175 171 166 167 166 165 168 167 164 164 164 164 157 152 155 157 156 152 143 140 146 153 159 160 160 162 157 151 132 101 97 97 95 89 81 75 80 100 123 129 132 132 130 137 146 144 122 108 109 101 101
121 144 158 164 170 185 199 201 199 192 185 188 202 219 217 213 213 210 206 206 205 206 205 203 202 202 201 200 198 196 196 198 189 180 182 178 169 169 173 172 171 174 172 166 164 164 160 158 160 160 162 163 155 145 145 148 149 148 144 141 135 131 122 110 104 101 98 98 96 92 92 108 128 135 135 133 132 141 155 164 163 150 138 123 114
129 151 168 176 178 182 196 203 203 198 190 187 202 221 224 219 212 206 205 207 207 206 207 207 207 206 205 202 199 197 198 200 194 187 188 186 178 175 177 179 176 178 180 172 164 162 162 160 161 162 164 165 159 151 147 145 142 135 129 126 124 122 121 118 114 107 100 100 103 106 110 119 132 137 135 135 136 143 156 170 182 218 221 191 164
123 139 148 154 163 170 186 197 201 201 197 195 206 222 227 224 214 205 205 206 205 205 209 212 212 209 206 204 201 198 199 200 198 197 198 194 189 182 181 185 182 180 181 175 165 163 164 162 161 161 162 162 160 154 149 145 138 130 124 121 120 119 122 129 134 127 112 105 107 112 118 126 134 138 138 142 148 154 164 180 202 240 260 250 223
115 121 124 139 162 152 158 179 191 200 203 198 192 206 218 220 212 201 201 203 203 204 209 215 217 213 208 206 203 201 202 201 199 202 205 202 196 187 184 187 183 180 181 175 168 167 166 164 161 161 162 162 160 156 152 146 138 133 129 125 124 124 127 136 149 157 157 152 142 139 139 141 148 156 160 164 174 183 193 214 235 254 265 262 252
108 109 110 119 132 126 115 140 173 190 197 186 180 196 214 217 209 197 194 198 201 204 208 216 221 218 212 209 207 207 204 198 195 201 207 206 197 188 186 187 181 179 182 176 171 171 168 165 163 164 166 164 160 158 155 150 145 142 140 138 137 137 138 141 150 159 169 180 187 185 181 182 186 190 193 198 208 219 231 244 251 261 265 264 261
98 98 97 96 100 108 103 99 133 173 180 172 180 195 208 214 211 201 194 195 197 203 210 217 222 222 216 211 211 211 204 198 195 197 204 204 194 186 185 185 178 175 179 177 173 172 170 168 168 170 170 167 164 163 163 160 158 155 154 155 156 157 158 160 161 163 169 178 193 202 203 202 205 210 215 219 224 229 238 246 251 259 263 263 263
96 95 95 93 91 98 105 95 85 87 97 132 168 184 195 208 210 204 203 202 202 207 214 219 224 226 222 216 213 209 202 199 194 191 197 198 189 184 186 183 173 167 171 174 172 171 172 175 178 178 175 173 172 173 173 173 170 168 165 166 170 177 182 185 184 179 177 181 198 214 217 213 214 219 224 226 229 230 234 241 246 252 255 257 261
97 96 95 97 97 99 105 100 85 82 86 91 105 124 155 182 177 183 201 207 209 213 218 221 225 228 225 220 221 220 211 200 193 193 196 194 187 183 184 182 171 162 161 164 165 167 173 182 188 188 186 185 187 189 190 189 187 184 183 184 193 201 205 209 210 205 196 202 234 261 258 252 247 249 253 254 253 251 253 254 250 246 241 236 240
92 93 93 97 101 105 109 109 100 94 91 90 95 105 125 157 168 178 193 203 211 216 218 221 224 230 228 219 219 226 218 199 198 200 193 189 190 187 187 188 177 162 157 160 160 164 179 190 194 196 199 201 204 206 205 203 202 201 202 204 207 209 216 224 232 239 239 248 274 290 290 281 274 271 270 270 269 268 269 270 264 253 237 222 217
91 91 91 93 97 105 112 114 111 107 102 99 101 108 120 135 151 169 186 200 213 221 223 221 222 228 230 220 215 220 214 198 202 205 198 194 191 183 186 200 190 169 161 167 171 176 190 200 204 205 209 213 214 216 216 215 214 212 209 205 203 209 222 235 248 259 265 271 281 288 291 288 285 283 280 279 277 275 274 273 270 262 247 230 219
94 94 92 92 93 99 107 111 114 114 111 105 104 110 114 116 124 139 160 180 198 214 225 226 226 228 231 225 216 217 218 211 210 213 210 204 195 185 191 203 194 180 179 188 193 200 206 209 211 213 217 220 221 221 222 225 226 221 215 211 214 225 237 247 259 266 270 274 279 284 286 286 286 286 286 285 282 281 280 277 273 267 256 242 230
96 98 96 96 96 98 100 105 110 114 115 113 111 112 110 107 111 122 140 163 176 187 201 212 222 229 235 230 213 208 216 215 213 215 213 206 202 202 204 203 199 203 214 218 211 211 220 220 215 217 222 227 229 228 228 232 234 229 223 223 229 238 246 252 258 262 267 272 277 281 283 284 284 284 285 285 282 281 280 278 274 267 258 247 237
94 99 101 103 104 104 105 105 106 108 112 116 114 111 106 105 107 109 117 136 150 158 173 180 183 207 235 231 210 206 215 214 207 206 206 203 203 207 209 209 210 214 221 226 223 221 231 236 232 232 234 234 235 235 233 235 237 236 234 234 238 242 247 253 257 261 266 271 276 280 282 282 283 283 283 283 281 279 278 275 271 263 257 251 243
91 98 103 106 107 108 107 105 104 104 108 113 111 105 100 99 103 104 104 109 117 123 130 140 148 128 122 188 201 204 210 212 206 201 202 205 208 212 217 221 223 225 227 228 228 230 239 250 254 252 248 244 242 240 239 241 242 245 246 247 248 249 251 254 258 262 266 270 274 278 280 281 283 284 285 284 280 277 274 270 263 256 253 251 246
91 95 101 104 106 107 106 103 102 103 104 106 106 108 111 107 101 100 97 93 95 98 100 105 107 97 95 131 184 199 204 212 220 217 212 214 217 220 224 225 228 234 236 232 232 238 248 255 255 250 247 246 244 242 243 247 249 252 252 252 253 253 254 257 260 264 267 270 273 276 279 281 283 285 287 285 279 274 269 263 256 250 248 247 245
91 93 95 98 100 101 102 102 101 100 100 98 98 103 110 113 110 106 100 95 92 89 91 95 97 93 92 104 128 163 188 205 222 223 218 220 223 224 226 227 232 238 239 235 239 246 253 255 251 248 248 246 242 240 242 246 251 255 257 257 257 257 257 258 260 262 266 270 274 277 279 281 284 288 289 283 276 270 261 253 251 248 246 244 243
92 93 93 95 95 95 97 98 98 96 94 95 98 101 104 105 106 104 101 99 95 90 88 89 91 92 92 93 102 123 155 185 212 219 217 220 224 225 225 227 234 239 239 241 245 249 251 250 249 250 250 248 246 245 246 247 250 254 258 260 261 261 260 260 260 263 267 271 274 277 279 282 285 288 286 278 272 265 254 247 248 249 247 246 243
94 95 95 96 97 95 94 94 93 92 90 91 96 101 103 103 100 100 99 97 93 88 84 84 85 86 87 89 94 109 138 166 189 200 208 218 224 226 227 231 237 241 242 244 247 248 247 246 248 250 250 251 252 253 252 251 251 254 257 260 261 260 260 261 263 265 268 271 273 275 278 282 285 286 280 271 266 259 248 244 246 248 249 247 244
93 92 90 92 94 95 94 91 90 88 87 89 92 95 97 96 95 96 97 93 90 86 83 83 84 84 85 87 90 96 107 124 142 159 186 211 222 225 230 237 243 247 248 248 248 246 245 248 253 257 258 259 257 254 255 256 255 256 257 259 260 261 262 266 269 271 271 272 274 276 278 280 283 281 274 268 263 255 250 249 250 250 249 248 247
86 86 84 85 88 91 91 87 80 76 75 78 87 93 91 90 92 95 92 86 83 82 81 82 85 87 88 88 89 92 94 98 102 106 109 123 178 208 212 218 231 241 247 251 251 250 251 257 262 263 264 264 258 255 258 262 260 258 258 259 261 262 264 268 270 273 274 275 276 278 277 276 278 277 274 270 262 254 249 250 251 251 249 247 244
80 82 84 87 88 87 87 82 74 68 64 60 67 89 88 84 90 92 84 76 73 74 77 78 80 85 88 88 90 90 88 87 87 86 87 85 69 75 156 143 354 296 265 254 252 254 259 265 265 253 248 252 254 254 259 263 262 261 260 261 263 265 267 269 271 273 275 276 276 275 272 269 269 270 270 269 264 256 249 244 244 245 243 240 237
81 80 79 83 85 84 82 78 72 68 64 57 60 82 81 75 83 81 71 65 62 60 61 61 63 68 73 77 79 78 74 74 74 74 77 70 54 54 62 58 45 39 45 163 178 28 306 305 319 251 237 249 256 256 261 265 267 268 267 266 268 268 267 268 269 269 270 269 269 269 267 265 264 263 262 261 259 255 248 241 240 240 236 232 232
86 82 78 79 82 81 79 75 70 67 63 56 57 68 71 73 80 74 60 50 44 38 35 32 27 26 30 36 39 39 41 41 41 40 35 25 24 34 45 48 39 24 336 304 313 342 332 321 330 317 275 272 277 275 274 275 275 275 275 273 272 271 269 269 269 268 267 266 265 264 262 262 262 260 259 257 254 251 246 240 239 238 234 233 235
85 81 77 76 76 76 75 73 69 63 59 52 48 52 57 63 69 66 54 42 32 25 22 16 8 3 1 359 357 354 350 347 345 341 339 336 334 333 326 315 301 291 287 285 281 277 277 279 285 289 287 283 281 280 281 283 282 281 281 279 279 280 278 276 274 273 273 272 270 268 265 264 263 260 260 258 254 252 246 239 236 238 236 233 233
83 80 75 71 70 68 65 63 60 54 51 48 44 43 46 52 55 54 49 41 32 24 19 14 11 8 1 353 348 340 331 327 323 319 317 313 309 308 303 296 293 290 287 285 282 279 277 277 278 283 286 286 284 281 281 284 286 287 287 287 286 286 286 283 280 277 275 273 272 272 271 269 268 267 263 260 257 256 251 243 237 238 239 235 230
81 76 69 61 57 55 49 47 46 44 43 43 44 44 49 52 52 48 46 43 36 27 20 15 14 12 7 2 353 340 332 326 320 315 314 309 304 299 294 289 286 284 281 281 280 279 279 279 279 280 283 285 287 285 282 283 284 285 286 286 283 280 280 281 281 279 277 275 274 275 277 279 278 274 267 261 257 257 256 249 240 235 235 233 229
77 68 57 46 38 37 35 35 36 37 38 39 42 47 51 53 52 50 49 47 40 33 27 23 20 18 19 20 15 5 357 348 340 333 325 318 314 307 301 297 292 288 286 283 283 284 284 284 284 283 284 287 288 285 280 279 280 281 281 281 279 276 275 277 278 278 279 279 279 278 279 279 278 275 272 267 262 262 263 258 247 237 232 230 226
70 59 46 34 30 30 31 29 31 34 37 39 44 48 48 46 45 45 46 44 42 42 44 43 42 44 45 47 47 42 30 19 15 14 5 356 348 338 331 329 324 316 311 308 308 309 310 308 304 302 300 298 296 292 288 284 283 281 279 277 275 273 273 276 280 281 281 282 283 281 277 273 273 275 276 270 264 263 266 266 257 244 232 222 215
61 48 37 31 31 32 32 32 34 36 39 43 47 47 44 41 40 41 43 45 48 51 57 63 70 75 78 80 80 76 68 58 47 40 39 36 28 23 20 18 10 1 356 354 351 347 346 345 340 333 328 323 317 311 307 303 299 295 290 285 281 277 274 275 278 280 282 283 283 281 276 271 270 271 269 260 253 255 260 263 261 248 227 209 201
49 38 33 31 32 35 36 36 37 38 40 44 44 42 40 37 38 41 45 53 60 67 74 80 83 87 90 90 90 90 88 82 72 61 54 48 42 38 36 33 26 18 11 7 3 358 356 357 355 347 340 336 332 328 323 319 316 312 307 302 296 290 285 281 279 280 282 284 280 274 271 268 265 265 263 257 252 253 255 256 253 236 215 206 204
38 31 28 29 32 35 36 35 34 33 33 34 34 35 37 38 43 49 56 64 72 81 89 93 92 90 90 89 89 89 88 87 85 80 71 62 52 44 37 31 25 16 8 2 357 351 347 344 342 336 330 326 324 323 321 319 318 317 314 311 308 303 296 288 282 280 280 279 274 268 267 271 274 273 269 261 257 255 252 250 245 231 215 213 216